Time,TemperatureF,DewpointF,PressureIn,WindDirection,WindDirectionDegrees,WindSpeedMPH,WindSpeedGustMPH,Humidity,HourlyPrecipIn,Conditions,Clouds,dailyrainin,SoftwareType,DateUTC
2013-03-09 06:22:00,59.0,54.0,30.05,SE,140,2.0,4.0,84,0.00,,,0.00,,2013-03-09 12:22:00,
2013-03-09 06:32:00,59.0,54.0,30.05,SE,140,0.0,4.0,84,0.00,,,0.00,,2013-03-09 12:32:00,
2013-03-09 06:42:00,59.0,54.0,30.05,SE,140,0.0,4.0,84,0.00,,,0.00,,2013-03-09 12:42:00,
2013-03-09 06:52:00,59.0,54.0,30.06,SE,140,0.0,0.0,84,0.00,,,0.00,,2013-03-09 12:52:00,
2013-03-09 07:02:00,60.0,55.0,30.06,SE,130,3.0,9.0,84,0.00,,,0.00,,2013-03-09 13:02:00,
2013-03-09 07:11:00,60.0,55.0,30.06,SE,130,3.0,9.0,84,0.00,,,0.00,,2013-03-09 13:11:00,
2013-03-09 07:21:00,60.0,55.0,30.06,SE,128,1.0,6.0,84,0.00,,,0.00,,2013-03-09 13:21:00,
2013-03-09 07:31:00,60.0,55.0,30.06,SE,129,1.0,6.0,84,0.00,,,0.00,,2013-03-09 13:31:00,
2013-03-09 07:42:00,60.0,55.0,30.06,SE,129,1.0,6.0,84,0.00,,,0.00,,2013-03-09 13:42:00,
2013-03-09 07:52:00,60.0,55.0,30.06,SE,128,2.0,6.0,84,0.00,,,0.00,,2013-03-09 13:52:00,
2013-03-09 08:01:00,60.0,55.0,30.06,SE,136,4.0,8.0,85,0.00,,,0.00,,2013-03-09 14:01:00,
2013-03-09 08:11:00,60.0,55.0,30.06,SE,136,4.0,8.0,85,0.00,,,0.00,,2013-03-09 14:11:00,
2013-03-09 08:21:00,61.0,56.0,30.05,SE,138,4.0,10.0,85,0.00,,,0.00,,2013-03-09 14:21:00,
2013-03-09 08:32:00,61.0,56.0,30.06,SE,137,3.0,10.0,85,0.00,,,0.00,,2013-03-09 14:32:00,
2013-03-09 08:42:00,61.0,56.0,30.06,SE,137,3.0,10.0,85,0.00,,,0.00,,2013-03-09 14:42:00,
2013-03-09 08:52:00,61.0,56.0,30.06,SE,135,4.0,8.0,85,0.00,,,0.00,,2013-03-09 14:52:00,
2013-03-09 09:01:00,62.0,57.0,30.06,SE,133,5.0,8.0,85,0.00,,,0.00,,2013-03-09 15:01:00,
2013-03-09 09:11:00,62.0,57.0,30.06,SE,133,5.0,8.0,85,0.00,,,0.00,,2013-03-09 15:11:00,
2013-03-09 09:22:00,62.0,58.0,30.05,SE,135,5.0,10.0,86,0.00,,,0.00,,2013-03-09 15:22:00,
2013-03-09 09:31:00,63.0,59.0,30.04,SE,130,6.0,9.0,86,0.00,,,0.00,,2013-03-09 15:31:00,
2013-03-09 09:42:00,63.0,59.0,30.04,SE,130,6.0,9.0,86,0.00,,,0.00,,2013-03-09 15:42:00,
2013-03-09 09:52:00,63.0,59.0,30.04,SE,135,7.0,10.0,86,0.00,,,0.00,,2013-03-09 15:52:00,
2013-03-09 10:01:00,64.0,60.0,30.04,SE,128,5.0,11.0,87,0.00,,,0.00,,2013-03-09 16:01:00,
2013-03-09 10:11:00,64.0,60.0,30.04,SE,128,5.0,11.0,87,0.00,,,0.00,,2013-03-09 16:11:00,
2013-03-09 10:21:00,64.0,60.0,30.04,SE,136,6.0,12.0,87,0.00,,,0.00,,2013-03-09 16:21:00,
2013-03-09 10:32:00,64.0,60.0,30.04,SE,134,7.0,10.0,87,0.00,,,0.00,,2013-03-09 16:32:00,
2013-03-09 10:41:00,64.0,60.0,30.04,SE,134,7.0,10.0,87,0.00,,,0.00,,2013-03-09 16:41:00,
2013-03-09 10:52:00,64.0,60.0,30.04,SE,140,9.0,17.0,87,0.00,,,0.00,,2013-03-09 16:52:00,
2013-03-09 11:01:00,65.0,61.0,30.03,SE,136,6.0,15.0,87,0.00,,,0.00,,2013-03-09 17:01:00,
2013-03-09 11:11:00,65.0,61.0,30.03,SE,136,6.0,15.0,87,0.00,,,0.00,,2013-03-09 17:11:00,
2013-03-09 11:22:00,65.0,61.0,30.04,SE,136,8.0,13.0,87,0.00,,,0.00,,2013-03-09 17:22:00,
2013-03-09 11:32:00,65.0,61.0,30.03,South,169,8.0,13.0,87,0.00,,,0.00,,2013-03-09 17:32:00,
2013-03-09 11:42:00,65.0,61.0,30.03,South,169,8.0,13.0,87,0.00,,,0.00,,2013-03-09 17:42:00,
2013-03-09 11:52:00,66.0,62.0,30.02,SSE,155,7.0,13.0,87,0.00,,,0.00,,2013-03-09 17:52:00,
2013-03-09 12:01:00,68.0,64.0,30.02,SSE,152,8.0,13.0,86,0.00,,,0.00,,2013-03-09 18:01:00,
2013-03-09 12:11:00,68.0,64.0,30.02,SSE,152,8.0,13.0,86,0.00,,,0.00,,2013-03-09 18:11:00,
2013-03-09 12:21:00,71.0,66.0,30.01,SSE,148,8.0,14.0,83,0.00,,,0.00,,2013-03-09 18:21:00,
2013-03-09 12:31:00,73.0,65.0,30.00,SE,146,8.0,18.0,77,0.00,,,0.00,,2013-03-09 18:31:00,
2013-03-09 12:42:00,73.0,65.0,30.00,SE,146,8.0,18.0,77,0.00,,,0.00,,2013-03-09 18:42:00,
2013-03-09 12:52:00,73.0,65.0,29.99,SE,129,11.0,18.0,76,0.00,,,0.00,,2013-03-09 18:52:00,
2013-03-09 13:01:00,72.0,65.0,29.99,SE,138,10.0,17.0,78,0.00,,,0.00,,2013-03-09 19:01:00,
2013-03-09 13:11:00,72.0,65.0,29.99,SE,138,10.0,17.0,78,0.00,,,0.00,,2013-03-09 19:11:00,
2013-03-09 13:22:00,71.0,65.0,29.98,SSE,153,8.0,14.0,81,0.00,,,0.00,,2013-03-09 19:22:00,
2013-03-09 13:32:00,71.0,65.0,29.97,SSE,151,8.0,13.0,82,0.00,,,0.00,,2013-03-09 19:32:00,
2013-03-09 13:42:00,71.0,65.0,29.97,SSE,151,8.0,13.0,82,0.00,,,0.00,,2013-03-09 19:42:00,
2013-03-09 13:52:00,71.0,65.0,29.96,SE,134,5.0,13.0,82,0.00,,,0.00,,2013-03-09 19:52:00,
2013-03-09 14:01:00,71.0,65.0,29.96,SE,136,6.0,12.0,82,0.00,,,0.00,,2013-03-09 20:01:00,
2013-03-09 14:11:00,71.0,65.0,29.96,SE,136,6.0,12.0,82,0.00,,,0.00,,2013-03-09 20:11:00,
2013-03-09 14:21:00,72.0,65.0,29.97,SE,125,10.0,18.0,78,0.00,,,0.00,,2013-03-09 20:21:00,
2013-03-09 14:32:00,72.0,65.0,29.96,South,169,8.0,17.0,78,0.00,,,0.00,,2013-03-09 20:32:00,
2013-03-09 14:42:00,72.0,65.0,29.96,South,169,8.0,17.0,78,0.00,,,0.00,,2013-03-09 20:42:00,
2013-03-09 14:52:00,73.0,65.0,29.96,SE,145,11.0,17.0,77,0.00,,,0.00,,2013-03-09 20:52:00,
2013-03-09 15:02:00,73.0,65.0,29.95,SSE,149,9.0,18.0,76,0.00,,,0.00,,2013-03-09 21:02:00,
2013-03-09 15:12:00,73.0,65.0,29.95,SSE,149,9.0,18.0,76,0.00,,,0.00,,2013-03-09 21:12:00,
2013-03-09 15:21:00,73.0,65.0,29.94,SE,129,8.0,17.0,76,0.00,,,0.00,,2013-03-09 21:21:00,
2013-03-09 15:32:00,72.0,64.0,29.93,SSE,155,8.0,17.0,77,0.00,,,0.00,,2013-03-09 21:32:00,
2013-03-09 15:42:00,72.0,64.0,29.93,SSE,155,8.0,17.0,77,0.00,,,0.00,,2013-03-09 21:42:00,
2013-03-09 15:52:00,72.0,64.0,29.93,South,181,14.0,19.0,76,0.00,,,0.00,,2013-03-09 21:52:00,
2013-03-09 16:01:00,72.0,65.0,29.93,SSE,165,8.0,16.0,78,0.00,,,0.00,,2013-03-09 22:01:00,
2013-03-09 16:11:00,72.0,65.0,29.93,SSE,165,8.0,16.0,78,0.00,,,0.00,,2013-03-09 22:11:00,
2013-03-09 16:21:00,71.0,65.0,29.92,SSE,149,5.0,13.0,80,0.00,,,0.00,,2013-03-09 22:21:00,
2013-03-09 16:32:00,71.0,65.0,29.92,SSE,162,9.0,15.0,80,0.00,,,0.00,,2013-03-09 22:32:00,
2013-03-09 16:41:00,71.0,65.0,29.92,SSE,162,9.0,15.0,80,0.00,,,0.00,,2013-03-09 22:41:00,
2013-03-09 16:52:00,71.0,65.0,29.91,SSE,149,9.0,17.0,80,0.00,,,0.00,,2013-03-09 22:52:00,
2013-03-09 17:01:00,71.0,65.0,29.91,SSE,160,5.0,13.0,81,0.00,,,0.00,,2013-03-09 23:01:00,
2013-03-09 17:11:00,71.0,65.0,29.91,SSE,160,5.0,13.0,81,0.00,,,0.00,,2013-03-09 23:11:00,
2013-03-09 17:21:00,71.0,65.0,29.90,SE,138,8.0,15.0,81,0.00,,,0.00,,2013-03-09 23:21:00,
2013-03-09 17:32:00,71.0,65.0,29.91,SSE,163,4.0,13.0,82,0.00,,,0.00,,2013-03-09 23:32:00,
2013-03-09 17:41:00,71.0,65.0,29.91,SSE,163,4.0,13.0,82,0.00,,,0.00,,2013-03-09 23:41:00,
2013-03-09 17:52:00,70.0,65.0,29.91,South,170,4.0,18.0,83,0.00,,,0.00,,2013-03-09 23:52:00,
2013-03-09 18:01:00,70.0,65.0,29.90,SE,131,6.0,11.0,83,0.00,,,0.00,,2013-03-10 00:01:00,
2013-03-09 18:11:00,70.0,65.0,29.90,SE,131,6.0,11.0,83,0.00,,,0.00,,2013-03-10 00:11:00,
2013-03-09 18:22:00,69.0,64.0,29.91,SSE,153,6.0,12.0,85,0.00,,,0.00,,2013-03-10 00:22:00,
2013-03-09 18:32:00,69.0,64.0,29.89,SE,133,7.0,11.0,85,0.00,,,0.00,,2013-03-10 00:32:00,
2013-03-09 18:42:00,69.0,64.0,29.89,SE,133,7.0,11.0,85,0.00,,,0.00,,2013-03-10 00:42:00,
2013-03-09 18:52:00,68.0,64.0,29.90,SE,141,6.0,10.0,86,0.00,,,0.00,,2013-03-10 00:52:00,
2013-03-09 19:01:00,68.0,64.0,29.90,SE,132,5.0,9.0,86,0.00,,,0.00,,2013-03-10 01:01:00,
2013-03-09 19:11:00,68.0,64.0,29.90,SE,132,5.0,9.0,86,0.00,,,0.00,,2013-03-10 01:11:00,
2013-03-09 19:21:00,68.0,64.0,29.90,SSE,153,4.0,11.0,87,0.00,,,0.00,,2013-03-10 01:21:00,
2013-03-09 19:31:00,67.0,63.0,29.90,SSE,152,4.0,8.0,87,0.00,,,0.00,,2013-03-10 01:31:00,
2013-03-09 19:41:00,67.0,63.0,29.90,SSE,152,4.0,8.0,87,0.00,,,0.00,,2013-03-10 01:41:00,
2013-03-09 19:52:00,67.0,63.0,29.91,SSE,152,4.0,8.0,87,0.00,,,0.00,,2013-03-10 01:52:00,
2013-03-09 20:01:00,67.0,63.0,29.91,SSE,148,4.0,9.0,87,0.00,,,0.00,,2013-03-10 02:01:00,
2013-03-09 20:11:00,67.0,63.0,29.91,SSE,148,4.0,9.0,87,0.00,,,0.00,,2013-03-10 02:11:00,
2013-03-09 20:22:00,67.0,63.0,29.89,SE,125,6.0,10.0,87,0.00,,,0.00,,2013-03-10 02:22:00,
2013-03-09 20:32:00,67.0,63.0,29.88,SSE,154,7.0,13.0,87,0.00,,,0.00,,2013-03-10 02:32:00,
2013-03-09 20:42:00,67.0,63.0,29.88,SSE,154,7.0,13.0,87,0.00,,,0.00,,2013-03-10 02:42:00,
2013-03-09 20:52:00,67.0,63.0,29.88,SE,134,7.0,11.0,87,0.00,,,0.00,,2013-03-10 02:52:00,
2013-03-09 21:01:00,66.0,62.0,29.88,SE,127,5.0,13.0,87,0.00,,,0.00,,2013-03-10 03:01:00,
2013-03-09 21:11:00,67.0,63.0,29.88,SE,144,6.0,14.0,87,0.00,,,0.00,,2013-03-10 03:11:00,
2013-03-09 21:22:00,67.0,63.0,29.88,SE,144,6.0,14.0,87,0.00,,,0.00,,2013-03-10 03:22:00,
2013-03-09 21:32:00,67.0,63.0,29.88,SE,140,9.0,14.0,87,0.00,,,0.00,,2013-03-10 03:32:00,
2013-03-09 21:42:00,67.0,63.0,29.88,SE,140,9.0,14.0,87,0.00,,,0.00,,2013-03-10 03:42:00,
2013-03-09 21:52:00,67.0,63.0,29.88,SE,128,9.0,15.0,87,0.00,,,0.00,,2013-03-10 03:52:00,
2013-03-09 22:01:00,68.0,64.0,29.88,SSE,157,10.0,19.0,87,0.00,,,0.00,,2013-03-10 04:01:00,
2013-03-09 22:11:00,68.0,64.0,29.88,SSE,157,10.0,19.0,87,0.00,,,0.00,,2013-03-10 04:11:00,
2013-03-09 22:21:00,68.0,64.0,29.88,SSE,152,3.0,18.0,87,0.00,,,0.00,,2013-03-10 04:21:00,
2013-03-09 22:31:00,68.0,64.0,29.87,SE,144,5.0,11.0,87,0.00,,,0.00,,2013-03-10 04:31:00,
2013-03-09 22:41:00,68.0,64.0,29.87,SE,144,5.0,11.0,87,0.00,,,0.00,,2013-03-10 04:41:00,
2013-03-09 22:52:00,68.0,64.0,29.87,SSE,161,6.0,13.0,87,0.00,,,0.00,,2013-03-10 04:52:00,
2013-03-09 23:01:00,67.0,63.0,29.86,SSE,153,4.0,11.0,87,0.00,,,0.00,,2013-03-10 05:01:00,
2013-03-09 23:11:00,67.0,63.0,29.86,SSE,153,4.0,11.0,87,0.00,,,0.00,,2013-03-10 05:11:00,
2013-03-09 23:22:00,67.0,63.0,29.85,SE,142,5.0,11.0,87,0.00,,,0.00,,2013-03-10 05:22:00,
2013-03-09 23:31:00,67.0,63.0,29.85,SE,136,5.0,9.0,87,0.00,,,0.00,,2013-03-10 05:31:00,
2013-03-09 23:42:00,67.0,63.0,29.86,SE,138,4.0,10.0,87,0.00,,,0.00,,2013-03-10 05:42:00,
2013-03-09 23:52:00,67.0,63.0,29.86,SE,138,4.0,10.0,87,0.00,,,0.00,,2013-03-10 05:52:00,